Year,Month,Day,Hour,Minute,Value (Times are PST for temperature in C)
2018,03,18,00,00,4.70
2018,03,18,00,01,4.70
2018,03,18,00,02,4.70
2018,03,18,00,03,4.70
2018,03,18,00,04,4.70
2018,03,18,00,05,4.70
2018,03,18,00,06,4.70
2018,03,18,00,07,4.70
2018,03,18,00,08,4.70
2018,03,18,00,09,4.70
2018,03,18,00,10,4.70
2018,03,18,00,11,4.70
2018,03,18,00,12,4.70
2018,03,18,00,13,4.70
2018,03,18,00,14,4.70
2018,03,18,00,15,4.70
2018,03,18,00,16,4.70
2018,03,18,00,17,4.60
2018,03,18,00,18,4.60
2018,03,18,00,19,4.60
2018,03,18,00,20,4.60
2018,03,18,00,21,4.50
2018,03,18,00,22,4.50
2018,03,18,00,23,4.40
2018,03,18,00,24,4.40
2018,03,18,00,25,4.40
2018,03,18,00,26,4.40
2018,03,18,00,27,4.40
2018,03,18,00,28,4.40
2018,03,18,00,29,4.30
2018,03,18,00,30,4.30
2018,03,18,00,31,4.30
2018,03,18,00,32,4.30
2018,03,18,00,33,4.30
2018,03,18,00,34,4.30
2018,03,18,00,35,4.30
2018,03,18,00,36,4.30
2018,03,18,00,37,4.30
2018,03,18,00,38,4.30
2018,03,18,00,39,4.30
2018,03,18,00,40,4.30
2018,03,18,00,41,4.30
2018,03,18,00,42,4.30
2018,03,18,00,43,4.30
2018,03,18,00,44,4.30
2018,03,18,00,45,4.30
2018,03,18,00,46,4.30
2018,03,18,00,47,4.30
2018,03,18,00,48,4.40
2018,03,18,00,49,4.40
2018,03,18,00,50,4.40
2018,03,18,00,51,4.40
2018,03,18,00,52,4.40
2018,03,18,00,53,4.40
2018,03,18,00,54,4.40
2018,03,18,00,55,4.40
2018,03,18,00,56,4.40
2018,03,18,00,57,4.40
2018,03,18,00,58,4.40
2018,03,18,00,59,4.40
2018,03,18,01,00,4.40
2018,03,18,01,01,4.40
2018,03,18,01,02,4.40
2018,03,18,01,03,4.40
2018,03,18,01,04,4.40
2018,03,18,01,05,4.40
2018,03,18,01,06,4.40
2018,03,18,01,07,4.40
2018,03,18,01,08,4.40
2018,03,18,01,09,4.40
2018,03,18,01,10,4.40
2018,03,18,01,11,4.40
2018,03,18,01,12,4.40
2018,03,18,01,13,4.30
2018,03,18,01,14,4.30
2018,03,18,01,15,4.30
2018,03,18,01,16,4.30
2018,03,18,01,17,4.30
2018,03,18,01,18,4.30
2018,03,18,01,19,4.30
2018,03,18,01,20,4.40
2018,03,18,01,21,4.40
2018,03,18,01,22,4.40
2018,03,18,01,23,4.40
2018,03,18,01,24,4.40
2018,03,18,01,25,4.40
2018,03,18,01,26,4.40
2018,03,18,01,27,4.40
2018,03,18,01,28,4.40
2018,03,18,01,29,4.40
2018,03,18,01,30,4.40
2018,03,18,01,31,4.40
2018,03,18,01,32,4.40
2018,03,18,01,33,4.40
2018,03,18,01,34,4.40
2018,03,18,01,35,4.40
2018,03,18,01,36,4.50
2018,03,18,01,37,4.50
2018,03,18,01,38,4.50
2018,03,18,01,39,4.50
2018,03,18,01,40,4.50
2018,03,18,01,41,4.60
2018,03,18,01,42,4.60
2018,03,18,01,43,4.60
2018,03,18,01,44,4.60
2018,03,18,01,45,4.60
2018,03,18,01,46,4.60
2018,03,18,01,47,4.60
2018,03,18,01,48,4.60
2018,03,18,01,49,4.60
2018,03,18,01,50,4.60
2018,03,18,01,51,4.60
2018,03,18,01,52,4.60
2018,03,18,01,53,4.60
2018,03,18,01,54,4.60
2018,03,18,01,55,4.60
2018,03,18,01,56,4.60
2018,03,18,01,57,4.60
2018,03,18,01,58,4.60
2018,03,18,01,59,4.60
2018,03,18,02,00,4.60
2018,03,18,02,01,4.60
2018,03,18,02,02,4.60
2018,03,18,02,03,4.60
2018,03,18,02,04,4.50
2018,03,18,02,05,4.50
2018,03,18,02,06,4.50
2018,03,18,02,07,4.40
2018,03,18,02,08,4.40
2018,03,18,02,09,4.40
2018,03,18,02,10,4.40
2018,03,18,02,11,4.30
2018,03,18,02,12,4.30
2018,03,18,02,13,4.30
2018,03,18,02,14,4.20
2018,03,18,02,15,4.20
2018,03,18,02,16,4.20
2018,03,18,02,17,4.20
2018,03,18,02,18,4.10
2018,03,18,02,19,4.10
2018,03,18,02,20,4.10
2018,03,18,02,21,4.10
2018,03,18,02,22,4.00
2018,03,18,02,23,4.00
2018,03,18,02,24,4.00
2018,03,18,02,25,4.00
2018,03,18,02,26,4.00
2018,03,18,02,27,4.00
2018,03,18,02,28,4.00
2018,03,18,02,29,4.00
2018,03,18,02,30,4.00
2018,03,18,02,31,4.00
2018,03,18,02,32,4.00
2018,03,18,02,33,4.00
2018,03,18,02,34,4.00
2018,03,18,02,35,3.90
2018,03,18,02,36,3.90
2018,03,18,02,37,3.90
2018,03,18,02,38,3.90
2018,03,18,02,39,3.90
2018,03,18,02,40,3.90
2018,03,18,02,41,3.90
2018,03,18,02,42,3.90
2018,03,18,02,43,3.90
2018,03,18,02,44,4.00
2018,03,18,02,45,4.00
2018,03,18,02,46,4.00
2018,03,18,02,47,4.00
2018,03,18,02,48,4.10
2018,03,18,02,49,4.10
2018,03,18,02,50,4.10
2018,03,18,02,51,4.10
2018,03,18,02,52,4.10
2018,03,18,02,53,4.20
2018,03,18,02,54,4.20
2018,03,18,02,55,4.20
2018,03,18,02,56,4.20
2018,03,18,02,57,4.20
2018,03,18,02,58,4.20
2018,03,18,02,59,4.20
2018,03,18,03,00,4.20
2018,03,18,03,01,4.20
2018,03,18,03,02,4.20
2018,03,18,03,03,4.20
2018,03,18,03,04,4.20
2018,03,18,03,05,4.20
2018,03,18,03,06,4.20
2018,03,18,03,07,4.20
2018,03,18,03,08,4.20
2018,03,18,03,09,4.20
2018,03,18,03,10,4.20
2018,03,18,03,11,4.20
2018,03,18,03,12,4.20
2018,03,18,03,13,4.10
2018,03,18,03,14,4.10
2018,03,18,03,15,4.10
2018,03,18,03,16,4.10
2018,03,18,03,17,4.10
2018,03,18,03,18,4.10
2018,03,18,03,19,4.10
2018,03,18,03,20,4.10
2018,03,18,03,21,4.10
2018,03,18,03,22,4.10
2018,03,18,03,23,4.10
2018,03,18,03,24,4.20
2018,03,18,03,25,4.20
2018,03,18,03,26,4.20
2018,03,18,03,27,4.20
2018,03,18,03,28,4.20
2018,03,18,03,29,4.20
2018,03,18,03,30,4.20
2018,03,18,03,31,4.20
2018,03,18,03,32,4.20
2018,03,18,03,33,4.20
2018,03,18,03,34,4.20
2018,03,18,03,35,4.20
2018,03,18,03,36,4.20
2018,03,18,03,37,4.20
2018,03,18,03,38,4.20
2018,03,18,03,39,4.20
2018,03,18,03,40,4.20
2018,03,18,03,41,4.20
2018,03,18,03,42,4.20
2018,03,18,03,43,4.20
2018,03,18,03,44,4.20
2018,03,18,03,45,4.20
2018,03,18,03,46,4.20
2018,03,18,03,47,4.30
2018,03,18,03,48,4.30
2018,03,18,03,49,4.30
2018,03,18,03,50,4.30
2018,03,18,03,51,4.30
2018,03,18,03,52,4.30
2018,03,18,03,53,4.30
2018,03,18,03,54,4.30
2018,03,18,03,55,4.30
2018,03,18,03,56,4.30
2018,03,18,03,57,4.30
2018,03,18,03,58,4.30
2018,03,18,03,59,4.30
2018,03,18,04,00,4.30
2018,03,18,04,01,4.30
2018,03,18,04,02,4.30
2018,03,18,04,03,4.30
2018,03,18,04,04,4.30
2018,03,18,04,05,4.30
2018,03,18,04,06,4.30
2018,03,18,04,07,4.30
2018,03,18,04,08,4.30
2018,03,18,04,09,4.30
2018,03,18,04,10,4.30
2018,03,18,04,11,4.30
2018,03,18,04,12,4.30
2018,03,18,04,13,4.30
2018,03,18,04,14,4.30
2018,03,18,04,15,4.30
2018,03,18,04,16,4.30
2018,03,18,04,17,4.30
2018,03,18,04,18,4.30
2018,03,18,04,19,4.30
2018,03,18,04,20,4.30
2018,03,18,04,21,4.30
2018,03,18,04,22,4.30
2018,03,18,04,23,4.30
2018,03,18,04,24,4.30
2018,03,18,04,25,4.30
2018,03,18,04,26,4.30
2018,03,18,04,27,4.30
2018,03,18,04,28,4.30
2018,03,18,04,29,4.30
2018,03,18,04,30,4.30
2018,03,18,04,31,4.30
2018,03,18,04,32,4.30
2018,03,18,04,33,4.30
2018,03,18,04,34,4.30
2018,03,18,04,35,4.30
2018,03,18,04,36,4.30
2018,03,18,04,37,4.30
2018,03,18,04,38,4.30
2018,03,18,04,39,4.30
2018,03,18,04,40,4.30
2018,03,18,04,41,4.30
2018,03,18,04,42,4.30
2018,03,18,04,43,4.30
2018,03,18,04,44,4.30
2018,03,18,04,45,4.30
2018,03,18,04,46,4.30
2018,03,18,04,47,4.30
2018,03,18,04,48,4.30
2018,03,18,04,49,4.30
2018,03,18,04,50,4.30
2018,03,18,04,51,4.40
2018,03,18,04,52,4.40
2018,03,18,04,53,4.40
2018,03,18,04,54,4.40
2018,03,18,04,55,4.40
2018,03,18,04,56,4.40
2018,03,18,04,57,4.40
2018,03,18,04,58,4.40
2018,03,18,04,59,4.40
2018,03,18,05,00,4.40
2018,03,18,05,01,4.40
2018,03,18,05,02,4.40
2018,03,18,05,03,4.40
2018,03,18,05,04,4.40
2018,03,18,05,05,4.40
2018,03,18,05,06,4.40
2018,03,18,05,07,4.40
2018,03,18,05,08,4.40
2018,03,18,05,09,4.40
2018,03,18,05,10,4.40
2018,03,18,05,11,4.40
2018,03,18,05,12,4.40
2018,03,18,05,13,4.30
2018,03,18,05,14,4.30
2018,03,18,05,15,4.30
2018,03,18,05,16,4.30
2018,03,18,05,17,4.30
2018,03,18,05,18,4.30
2018,03,18,05,19,4.30
2018,03,18,05,20,4.30
2018,03,18,05,21,4.20
2018,03,18,05,22,4.20
2018,03,18,05,23,4.20
2018,03,18,05,24,4.20
2018,03,18,05,25,4.20
2018,03,18,05,26,4.20
2018,03,18,05,27,4.20
2018,03,18,05,28,4.20
2018,03,18,05,29,4.20
2018,03,18,05,30,4.20
2018,03,18,05,31,4.10
2018,03,18,05,32,4.10
2018,03,18,05,33,4.10
2018,03,18,05,34,4.10
2018,03,18,05,35,4.10
2018,03,18,05,36,4.00
2018,03,18,05,37,4.00
2018,03,18,05,38,4.00
2018,03,18,05,39,3.90
2018,03,18,05,40,3.90
2018,03,18,05,41,3.90
2018,03,18,05,42,3.90
2018,03,18,05,43,3.80
2018,03,18,05,44,3.80
2018,03,18,05,45,3.80
2018,03,18,05,46,3.80
2018,03,18,05,47,3.80
2018,03,18,05,48,3.70
2018,03,18,05,49,3.70
2018,03,18,05,50,3.70
2018,03,18,05,51,3.70
2018,03,18,05,52,3.70
2018,03,18,05,53,3.70
2018,03,18,05,54,3.70
2018,03,18,05,55,3.60
2018,03,18,05,56,3.60
2018,03,18,05,57,3.60
2018,03,18,05,58,3.60
2018,03,18,05,59,3.60
2018,03,18,06,00,3.50
2018,03,18,06,01,3.50
2018,03,18,06,02,3.50
2018,03,18,06,03,3.50
2018,03,18,06,04,3.40
2018,03,18,06,05,3.40
2018,03,18,06,06,3.40
2018,03,18,06,07,3.40
2018,03,18,06,08,3.40
2018,03,18,06,09,3.30
2018,03,18,06,10,3.30
2018,03,18,06,11,3.30
2018,03,18,06,12,3.30
2018,03,18,06,13,3.30
2018,03,18,06,14,3.30
2018,03,18,06,15,3.30
2018,03,18,06,16,3.30
2018,03,18,06,17,3.30
2018,03,18,06,18,3.30
2018,03,18,06,19,3.30
2018,03,18,06,20,3.30
2018,03,18,06,21,3.30
2018,03,18,06,22,3.30
2018,03,18,06,23,3.30
2018,03,18,06,24,3.30
2018,03,18,06,25,3.30
2018,03,18,06,26,3.20
2018,03,18,06,27,3.20
2018,03,18,06,28,3.20
2018,03,18,06,29,3.20
2018,03,18,06,30,3.20
2018,03,18,06,31,3.20
2018,03,18,06,32,3.10
2018,03,18,06,33,3.10
2018,03,18,06,34,3.10
2018,03,18,06,35,3.00
2018,03,18,06,36,3.00
2018,03,18,06,37,3.00
2018,03,18,06,38,3.00
2018,03,18,06,39,3.00
2018,03,18,06,40,3.00
2018,03,18,06,41,3.00
2018,03,18,06,42,3.00
2018,03,18,06,43,3.00
2018,03,18,06,44,3.00
2018,03,18,06,45,3.00
2018,03,18,06,46,3.00
2018,03,18,06,47,3.00
2018,03,18,06,48,3.00
2018,03,18,06,49,3.00
2018,03,18,06,50,3.00
2018,03,18,06,51,2.90
2018,03,18,06,52,2.90
2018,03,18,06,53,2.90
2018,03,18,06,54,2.90
2018,03,18,06,55,2.90
2018,03,18,06,56,2.90
2018,03,18,06,57,2.90
2018,03,18,06,58,2.90
2018,03,18,06,59,2.90
2018,03,18,07,00,2.90
2018,03,18,07,01,2.90
2018,03,18,07,02,2.90
2018,03,18,07,03,2.80
2018,03,18,07,04,2.80
2018,03,18,07,05,2.80
2018,03,18,07,06,2.70
2018,03,18,07,07,2.70
2018,03,18,07,08,2.70
2018,03,18,07,09,2.60
2018,03,18,07,10,2.60
2018,03,18,07,11,2.60
2018,03,18,07,12,2.50
2018,03,18,07,13,2.50
2018,03,18,07,14,2.40
2018,03,18,07,15,2.40
2018,03,18,07,16,2.40
2018,03,18,07,17,2.40
2018,03,18,07,18,2.40
2018,03,18,07,19,2.40
2018,03,18,07,20,2.40
2018,03,18,07,21,2.40
2018,03,18,07,22,2.50
2018,03,18,07,23,2.50
2018,03,18,07,24,2.50
2018,03,18,07,25,2.50
2018,03,18,07,26,2.50
2018,03,18,07,27,2.50
2018,03,18,07,28,2.50
2018,03,18,07,29,2.50
2018,03,18,07,30,2.50
2018,03,18,07,31,2.50
2018,03,18,07,32,2.50
2018,03,18,07,33,2.50
2018,03,18,07,34,2.50
2018,03,18,07,35,2.50
2018,03,18,07,36,2.50
2018,03,18,07,37,2.60
2018,03,18,07,38,2.60
2018,03,18,07,39,2.50
2018,03,18,07,40,2.50
2018,03,18,07,41,2.50
2018,03,18,07,42,2.50
2018,03,18,07,43,2.60
2018,03,18,07,44,2.60
2018,03,18,07,45,2.60
2018,03,18,07,46,2.50
2018,03,18,07,47,2.60
2018,03,18,07,48,2.60
2018,03,18,07,49,2.50
2018,03,18,07,50,2.50
2018,03,18,07,51,2.50
2018,03,18,07,52,2.50
2018,03,18,07,53,2.50
2018,03,18,07,54,2.50
2018,03,18,07,55,2.50
2018,03,18,07,56,2.50
2018,03,18,07,57,2.50
2018,03,18,07,58,2.50
2018,03,18,07,59,2.50
2018,03,18,08,00,2.50
2018,03,18,08,01,2.50
2018,03,18,08,02,2.40
2018,03,18,08,03,2.40
2018,03,18,08,04,2.40
2018,03,18,08,05,2.40
2018,03,18,08,06,2.40
2018,03,18,08,07,2.40
2018,03,18,08,08,2.50
2018,03,18,08,09,2.50
2018,03,18,08,10,2.50
2018,03,18,08,11,2.50
2018,03,18,08,12,2.50
2018,03,18,08,13,2.50
2018,03,18,08,14,2.60
2018,03,18,08,15,2.60
2018,03,18,08,16,2.60
2018,03,18,08,17,2.60
2018,03,18,08,18,2.60
2018,03,18,08,19,2.60
2018,03,18,08,20,2.60
2018,03,18,08,21,2.60
2018,03,18,08,22,2.60
2018,03,18,08,23,2.70
2018,03,18,08,24,2.70
2018,03,18,08,25,2.70
2018,03,18,08,26,2.70
2018,03,18,08,27,2.70
2018,03,18,08,28,2.70
2018,03,18,08,29,2.70
2018,03,18,08,30,2.70
2018,03,18,08,31,2.70
2018,03,18,08,32,2.70
2018,03,18,08,33,2.70
2018,03,18,08,34,2.80
2018,03,18,08,35,2.80
2018,03,18,08,36,2.90
2018,03,18,08,37,2.90
2018,03,18,08,38,3.00
2018,03,18,08,39,3.00
2018,03,18,08,40,3.10
2018,03,18,08,41,3.10
2018,03,18,08,42,3.10
2018,03,18,08,43,3.20
2018,03,18,08,44,3.20
2018,03,18,08,45,3.20
2018,03,18,08,46,3.30
2018,03,18,08,47,3.30
2018,03,18,08,48,3.30
2018,03,18,08,49,3.30
2018,03,18,08,50,3.30
2018,03,18,08,51,3.30
2018,03,18,08,52,3.30
2018,03,18,08,53,3.40
2018,03,18,08,54,3.40
2018,03,18,08,55,3.40
2018,03,18,08,56,3.40
2018,03,18,08,57,3.40
2018,03,18,08,58,3.50
2018,03,18,08,59,3.50
2018,03,18,09,00,3.50
2018,03,18,09,01,3.50
2018,03,18,09,02,3.60
2018,03,18,09,03,3.60
2018,03,18,09,04,3.70
2018,03,18,09,05,3.80
2018,03,18,09,06,3.80
2018,03,18,09,07,3.90
2018,03,18,09,08,4.00
2018,03,18,09,09,4.10
2018,03,18,09,10,4.20
2018,03,18,09,11,4.20
2018,03,18,09,12,4.20
2018,03,18,09,13,4.20
2018,03,18,09,14,4.20
2018,03,18,09,15,4.20
2018,03,18,09,16,4.30
2018,03,18,09,17,4.30
2018,03,18,09,18,4.30
2018,03,18,09,19,4.40
2018,03,18,09,20,4.40
2018,03,18,09,21,4.40
2018,03,18,09,22,4.40
2018,03,18,09,23,4.40
2018,03,18,09,24,4.50
2018,03,18,09,25,4.50
2018,03,18,09,26,4.50
2018,03,18,09,27,4.60
2018,03,18,09,28,4.60
2018,03,18,09,29,4.60
2018,03,18,09,30,4.70
2018,03,18,09,31,4.70
2018,03,18,09,32,4.70
2018,03,18,09,33,4.80
2018,03,18,09,34,4.80
2018,03,18,09,35,4.90
2018,03,18,09,36,5.00
2018,03,18,09,37,5.00
2018,03,18,09,38,5.10
2018,03,18,09,39,5.20
2018,03,18,09,40,5.30
2018,03,18,09,41,5.40
2018,03,18,09,42,5.50
2018,03,18,09,43,5.60
2018,03,18,09,44,5.70
2018,03,18,09,45,5.70
2018,03,18,09,46,5.70
2018,03,18,09,47,5.80
2018,03,18,09,48,5.80
2018,03,18,09,49,5.90
2018,03,18,09,50,6.00
2018,03,18,09,51,6.10
2018,03,18,09,52,6.10
2018,03,18,09,53,6.20
2018,03,18,09,54,6.20
2018,03,18,09,55,6.30
2018,03,18,09,56,6.40
2018,03,18,09,57,6.40
2018,03,18,09,58,6.50
2018,03,18,09,59,6.60
2018,03,18,10,00,6.60
2018,03,18,10,01,6.70
2018,03,18,10,02,6.70
2018,03,18,10,03,6.80
2018,03,18,10,04,6.80
2018,03,18,10,05,6.80
2018,03,18,10,06,6.90
2018,03,18,10,07,6.90
2018,03,18,10,08,6.90
2018,03,18,10,09,7.00
2018,03,18,10,10,7.00
2018,03,18,10,11,7.10
2018,03,18,10,12,7.20
2018,03,18,10,13,7.20
2018,03,18,10,14,7.20
2018,03,18,10,15,7.30
2018,03,18,10,16,7.30
2018,03,18,10,17,7.40
2018,03,18,10,18,7.40
2018,03,18,10,19,7.40
2018,03,18,10,20,7.40
2018,03,18,10,21,7.40
2018,03,18,10,22,7.40
2018,03,18,10,23,7.40
2018,03,18,10,24,7.40
2018,03,18,10,25,7.40
2018,03,18,10,26,7.40
2018,03,18,10,27,7.40
2018,03,18,10,28,7.40
2018,03,18,10,29,7.40
2018,03,18,10,30,7.40
2018,03,18,10,31,7.50
2018,03,18,10,32,7.60
2018,03,18,10,33,7.60
2018,03,18,10,34,7.70
2018,03,18,10,35,7.70
2018,03,18,10,36,7.70
2018,03,18,10,37,7.80
2018,03,18,10,38,7.80
2018,03,18,10,39,7.80
2018,03,18,10,40,7.80
2018,03,18,10,41,7.80
2018,03,18,10,42,7.80
2018,03,18,10,43,7.80
2018,03,18,10,44,7.80
2018,03,18,10,45,7.80
2018,03,18,10,46,7.80
2018,03,18,10,47,7.90
2018,03,18,10,48,7.90
2018,03,18,10,49,7.90
2018,03,18,10,50,8.00
2018,03,18,10,51,8.10
2018,03,18,10,52,8.10
2018,03,18,10,53,8.10
2018,03,18,10,54,8.20
2018,03,18,10,55,8.20
2018,03,18,10,56,8.20
2018,03,18,10,57,8.20
2018,03,18,10,58,8.20
2018,03,18,10,59,8.20
2018,03,18,11,00,8.20
2018,03,18,11,01,8.20
2018,03,18,11,02,8.30
2018,03,18,11,03,8.30
2018,03,18,11,04,8.40
2018,03,18,11,05,8.50
2018,03,18,11,06,8.50
2018,03,18,11,07,8.50
2018,03,18,11,08,8.50
2018,03,18,11,09,8.50
2018,03,18,11,10,8.40
2018,03,18,11,11,8.50
2018,03,18,11,12,8.60
2018,03,18,11,13,8.60
2018,03,18,11,14,8.70
2018,03,18,11,15,8.70
2018,03,18,11,16,8.80
2018,03,18,11,17,8.80
2018,03,18,11,18,8.90
2018,03,18,11,19,9.00
2018,03,18,11,20,9.00
2018,03,18,11,21,9.10
2018,03,18,11,22,9.10
2018,03,18,11,23,9.10
2018,03,18,11,24,9.10
2018,03,18,11,25,9.10
2018,03,18,11,26,9.10
2018,03,18,11,27,9.10
2018,03,18,11,28,9.10
2018,03,18,11,29,9.20
2018,03,18,11,30,9.30
2018,03,18,11,31,9.30
2018,03,18,11,32,9.40
2018,03,18,11,33,9.40
2018,03,18,11,34,9.40
2018,03,18,11,35,9.40
2018,03,18,11,36,9.50
2018,03,18,11,37,9.50
2018,03,18,11,38,9.60
2018,03,18,11,39,9.70
2018,03,18,11,40,9.80
2018,03,18,11,41,9.80
2018,03,18,11,42,9.80
2018,03,18,11,43,9.80
2018,03,18,11,44,9.90
2018,03,18,11,45,9.90
2018,03,18,11,46,10.00
2018,03,18,11,47,10.00
2018,03,18,11,48,9.90
2018,03,18,11,49,9.90
2018,03,18,11,50,10.00
2018,03,18,11,51,10.00
2018,03,18,11,52,10.10
2018,03,18,11,53,10.20
2018,03,18,11,54,10.20
2018,03,18,11,55,10.10
2018,03,18,11,56,10.10
2018,03,18,11,57,10.10
2018,03,18,11,58,10.20
2018,03,18,11,59,10.20
2018,03,18,12,00,10.20
2018,03,18,12,01,10.20
2018,03,18,12,02,10.20
2018,03,18,12,03,10.10
2018,03,18,12,04,10.10
2018,03,18,12,05,10.00
2018,03,18,12,06,9.90
2018,03,18,12,07,9.80
2018,03,18,12,08,9.80
2018,03,18,12,09,9.80
2018,03,18,12,10,9.80
2018,03,18,12,11,9.90
2018,03,18,12,12,9.90
2018,03,18,12,13,9.90
2018,03,18,12,14,10.00
2018,03,18,12,15,10.10
2018,03,18,12,16,10.10
2018,03,18,12,17,10.10
2018,03,18,12,18,10.10
2018,03,18,12,19,10.10
2018,03,18,12,20,10.00
2018,03,18,12,21,10.00
2018,03,18,12,22,9.90
2018,03,18,12,23,10.00
2018,03,18,12,24,10.00
2018,03,18,12,25,10.00
2018,03,18,12,26,10.00
2018,03,18,12,27,10.10
2018,03,18,12,28,10.10
2018,03,18,12,29,10.20
2018,03,18,12,30,10.20
2018,03,18,12,31,10.10
2018,03,18,12,32,10.10
2018,03,18,12,33,10.10
2018,03,18,12,34,10.10
2018,03,18,12,35,10.10
2018,03,18,12,36,10.20
2018,03,18,12,37,10.20
2018,03,18,12,38,10.30
2018,03,18,12,39,10.30
2018,03,18,12,40,10.30
2018,03,18,12,41,10.40
2018,03,18,12,42,10.40
2018,03,18,12,43,10.50
2018,03,18,12,44,10.60
2018,03,18,12,45,10.70
2018,03,18,12,46,10.70
2018,03,18,12,47,10.60
2018,03,18,12,48,10.60
2018,03,18,12,49,10.60
2018,03,18,12,50,10.60
2018,03,18,12,51,10.70
2018,03,18,12,52,10.70
2018,03,18,12,53,10.70
2018,03,18,12,54,10.70
2018,03,18,12,55,10.60
2018,03,18,12,56,10.50
2018,03,18,12,57,10.40
2018,03,18,12,58,10.40
2018,03,18,12,59,10.40
2018,03,18,13,00,10.40
2018,03,18,13,01,10.40
2018,03,18,13,02,10.40
2018,03,18,13,03,10.40
2018,03,18,13,04,10.40
2018,03,18,13,05,10.40
2018,03,18,13,06,10.50
2018,03,18,13,07,10.60
2018,03,18,13,08,10.60
2018,03,18,13,09,10.70
2018,03,18,13,10,10.60
2018,03,18,13,11,10.60
2018,03,18,13,12,10.50
2018,03,18,13,13,10.50
2018,03,18,13,14,10.40
2018,03,18,13,15,10.40
2018,03,18,13,16,10.50
2018,03,18,13,17,10.60
2018,03,18,13,18,10.70
2018,03,18,13,19,10.70
2018,03,18,13,20,10.70
2018,03,18,13,21,10.70
2018,03,18,13,22,10.70
2018,03,18,13,23,10.70
2018,03,18,13,24,10.80
2018,03,18,13,25,10.90
2018,03,18,13,26,11.00
2018,03,18,13,27,11.00
2018,03,18,13,28,11.10
2018,03,18,13,29,11.00
2018,03,18,13,30,10.90
2018,03,18,13,31,10.80
2018,03,18,13,32,10.70
2018,03,18,13,33,10.70
2018,03,18,13,34,10.80
2018,03,18,13,35,10.80
2018,03,18,13,36,10.80
2018,03,18,13,37,10.80
2018,03,18,13,38,10.90
2018,03,18,13,39,11.00
2018,03,18,13,40,11.00
2018,03,18,13,41,10.90
2018,03,18,13,42,10.80
2018,03,18,13,43,10.70
2018,03,18,13,44,10.70
2018,03,18,13,45,10.70
2018,03,18,13,46,10.70
2018,03,18,13,47,10.70
2018,03,18,13,48,10.70
2018,03,18,13,49,10.80
2018,03,18,13,50,10.80
2018,03,18,13,51,11.00
2018,03,18,13,52,11.10
2018,03,18,13,53,11.20
2018,03,18,13,54,11.30
2018,03,18,13,55,11.30
2018,03,18,13,56,11.30
2018,03,18,13,57,11.40
2018,03,18,13,58,11.40
2018,03,18,13,59,11.40
2018,03,18,14,00,11.40
2018,03,18,14,01,11.30
2018,03,18,14,02,11.30
2018,03,18,14,03,11.30
2018,03,18,14,04,11.30
2018,03,18,14,05,11.30
2018,03,18,14,06,11.20
2018,03,18,14,07,11.20
2018,03,18,14,08,11.20
2018,03,18,14,09,11.30
2018,03,18,14,10,11.30
2018,03,18,14,11,11.40
2018,03,18,14,12,11.40
2018,03,18,14,13,11.40
2018,03,18,14,14,11.40
2018,03,18,14,15,11.40
2018,03,18,14,16,11.40
2018,03,18,14,17,11.40
2018,03,18,14,18,11.40
2018,03,18,14,19,11.50
2018,03,18,14,20,11.60
2018,03,18,14,21,11.60
2018,03,18,14,22,11.70
2018,03,18,14,23,11.70
2018,03,18,14,24,11.80
2018,03,18,14,25,11.80
2018,03,18,14,26,11.90
2018,03,18,14,27,12.00
2018,03,18,14,28,12.10
2018,03,18,14,29,12.20
2018,03,18,14,30,12.20
2018,03,18,14,31,12.20
2018,03,18,14,32,12.20
2018,03,18,14,33,12.20
2018,03,18,14,34,12.20
2018,03,18,14,35,12.20
2018,03,18,14,36,12.30
2018,03,18,14,37,12.30
2018,03,18,14,38,12.20
2018,03,18,14,39,12.20
2018,03,18,14,40,12.20
2018,03,18,14,41,12.20
2018,03,18,14,42,12.10
2018,03,18,14,43,12.10
2018,03,18,14,44,12.00
2018,03,18,14,45,11.90
2018,03,18,14,46,11.90
2018,03,18,14,47,11.80
2018,03,18,14,48,11.80
2018,03,18,14,49,11.70
2018,03,18,14,50,11.70
2018,03,18,14,51,11.70
2018,03,18,14,52,11.60
2018,03,18,14,53,11.60
2018,03,18,14,54,11.50
2018,03,18,14,55,11.50
2018,03,18,14,56,11.50
2018,03,18,14,57,11.60
2018,03,18,14,58,11.70
2018,03,18,14,59,11.80
2018,03,18,15,00,11.80
2018,03,18,15,01,11.80
2018,03,18,15,02,11.80
2018,03,18,15,03,11.80
2018,03,18,15,04,11.80
2018,03,18,15,05,11.80
2018,03,18,15,06,11.80
2018,03,18,15,07,11.90
2018,03,18,15,08,11.90
2018,03,18,15,09,12.00
2018,03,18,15,10,12.10
2018,03,18,15,11,12.10
2018,03,18,15,12,12.10
2018,03,18,15,13,12.00
2018,03,18,15,14,11.90
2018,03,18,15,15,11.90
2018,03,18,15,16,11.80
2018,03,18,15,17,11.80
2018,03,18,15,18,11.80
2018,03,18,15,19,11.80
2018,03,18,15,20,11.90
2018,03,18,15,21,11.90
2018,03,18,15,22,12.00
2018,03,18,15,23,12.10
2018,03,18,15,24,12.10
2018,03,18,15,25,12.10
2018,03,18,15,26,12.10
2018,03,18,15,27,12.10
2018,03,18,15,28,12.20
2018,03,18,15,29,12.10
2018,03,18,15,30,12.10
2018,03,18,15,31,12.10
2018,03,18,15,32,12.20
2018,03,18,15,33,12.20
2018,03,18,15,34,12.30
2018,03,18,15,35,12.30
2018,03,18,15,36,12.20
2018,03,18,15,37,12.10
2018,03,18,15,38,12.00
2018,03,18,15,39,11.90
2018,03,18,15,40,11.80
2018,03,18,15,41,11.70
2018,03,18,15,42,11.70
2018,03,18,15,43,11.60
2018,03,18,15,44,11.50
2018,03,18,15,45,11.50
2018,03,18,15,46,11.50
2018,03,18,15,47,11.40
2018,03,18,15,48,11.40
2018,03,18,15,49,11.40
2018,03,18,15,50,11.40
2018,03,18,15,51,11.40
2018,03,18,15,52,11.40
2018,03,18,15,53,11.40
2018,03,18,15,54,11.40
2018,03,18,15,55,11.40
2018,03,18,15,56,11.40
2018,03,18,15,57,11.30
2018,03,18,15,58,11.30
2018,03,18,15,59,11.30
2018,03,18,16,00,11.20
2018,03,18,16,01,11.20
2018,03,18,16,02,11.20
2018,03,18,16,03,11.30
2018,03,18,16,04,11.30
2018,03,18,16,05,11.30
2018,03,18,16,06,11.30
2018,03,18,16,07,11.40
2018,03,18,16,08,11.50
2018,03,18,16,09,11.50
2018,03,18,16,10,11.60
2018,03,18,16,11,11.60
2018,03,18,16,12,11.50
2018,03,18,16,13,11.50
2018,03,18,16,14,11.40
2018,03,18,16,15,11.40
2018,03,18,16,16,11.40
2018,03,18,16,17,11.40
2018,03,18,16,18,11.40
2018,03,18,16,19,11.50
2018,03,18,16,20,11.60
2018,03,18,16,21,11.60
2018,03,18,16,22,11.70
2018,03,18,16,23,11.60
2018,03,18,16,24,11.50
2018,03,18,16,25,11.40
2018,03,18,16,26,11.30
2018,03,18,16,27,11.30
2018,03,18,16,28,11.20
2018,03,18,16,29,11.20
2018,03,18,16,30,11.10
2018,03,18,16,31,11.00
2018,03,18,16,32,11.00
2018,03,18,16,33,10.90
2018,03,18,16,34,10.90
2018,03,18,16,35,10.80
2018,03,18,16,36,10.80
2018,03,18,16,37,10.70
2018,03,18,16,38,10.70
2018,03,18,16,39,10.70
2018,03,18,16,40,10.60
2018,03,18,16,41,10.60
2018,03,18,16,42,10.60
2018,03,18,16,43,10.60
2018,03,18,16,44,10.70
2018,03,18,16,45,10.70
2018,03,18,16,46,10.70
2018,03,18,16,47,10.70
2018,03,18,16,48,10.70
2018,03,18,16,49,10.70
2018,03,18,16,50,10.70
2018,03,18,16,51,10.70
2018,03,18,16,52,10.60
2018,03,18,16,53,10.60
2018,03,18,16,54,10.50
2018,03,18,16,55,10.50
2018,03,18,16,56,10.40
2018,03,18,16,57,10.40
2018,03,18,16,58,10.40
2018,03,18,16,59,10.40
2018,03,18,17,00,10.40
2018,03,18,17,01,10.40
2018,03,18,17,02,10.30
2018,03,18,17,03,10.30
2018,03,18,17,04,10.30
2018,03,18,17,05,10.30
2018,03,18,17,06,10.30
2018,03,18,17,07,10.30
2018,03,18,17,08,10.30
2018,03,18,17,09,10.30
2018,03,18,17,10,10.30
2018,03,18,17,11,10.30
2018,03,18,17,12,10.20
2018,03,18,17,13,10.20
2018,03,18,17,14,10.20
2018,03,18,17,15,10.20
2018,03,18,17,16,10.10
2018,03,18,17,17,10.10
2018,03,18,17,18,10.10
2018,03,18,17,19,10.00
2018,03,18,17,20,10.00
2018,03,18,17,21,9.90
2018,03,18,17,22,9.90
2018,03,18,17,23,9.90
2018,03,18,17,24,9.90
2018,03,18,17,25,9.90
2018,03,18,17,26,9.80
2018,03,18,17,27,9.80
2018,03,18,17,28,9.80
2018,03,18,17,29,9.80
2018,03,18,17,30,9.80
2018,03,18,17,31,9.80
2018,03,18,17,32,9.80
2018,03,18,17,33,9.80
2018,03,18,17,34,9.80
2018,03,18,17,35,9.80
2018,03,18,17,36,9.80
2018,03,18,17,37,9.80
2018,03,18,17,38,9.80
2018,03,18,17,39,9.80
2018,03,18,17,40,9.80
2018,03,18,17,41,9.80
2018,03,18,17,42,9.80
2018,03,18,17,43,9.80
2018,03,18,17,44,9.80
2018,03,18,17,45,9.80
2018,03,18,17,46,9.80
2018,03,18,17,47,9.80
2018,03,18,17,48,9.80
2018,03,18,17,49,9.80
2018,03,18,17,50,9.80
2018,03,18,17,51,9.80
2018,03,18,17,52,9.80